Location: Unspecified
(0.0000°N, 0.0000°E)
Time: 11:58:31
(UTC+02:00)

BREEZE-M DEB (TANK) - Visible Passes

Search period start: 01 July 2016 00:00
Search period end: 11 July 2016 00:00
Orbit: 329 x 16344 km, 49.4° (Epoch: 30 June)

Date Brightness Start Highest point End Pass type
(mag) Time Alt. Az. Time Alt. Az. Time Alt. Az.
01 Jul 5.0 05:48:56 10° NNW 06:15:24 65° NE 06:20:53 10° SE visible
01 Jul 8.4 22:04:07 10° W 23:07:06 27° NW 01:38:32 10° NE visible
02 Jul 4.1 06:37:50 10° NW 06:57:49 68° WSW 07:02:27 10° SSE visible
02 Jul 7.5 17:21:46 10° SSW 17:47:45 74° ESE 20:22:27 10° NNE visible
02 Jul 8.1 23:06:58 10° WNW 02:00:14 21° N 02:27:36 10° NE visible
03 Jul 4.7 07:26:45 10° NW 07:38:51 29° WSW 07:43:04 10° S visible
03 Jul 7.8 18:03:43 10° SW 18:32:59 88° WNW 21:15:32 10° NNE visible
04 Jul 7.6 01:20:46 10° NW 02:58:28 23° NNE 03:14:37 10° ENE visible
04 Jul 8.2 18:46:25 10° SW 19:20:43 71° WNW 22:07:08 10° NNE visible
05 Jul 7.1 02:54:06 10° NNW 03:48:15 29° NNE 03:59:41 10° E visible
05 Jul 8.6 19:30:07 10° WSW 20:11:04 56° WNW 22:58:12 10° NNE visible
06 Jul 6.6 03:53:23 10° NNW 04:34:50 39° NNE 04:43:17 10° E visible
06 Jul 8.8 20:15:29 10° WSW 21:04:12 43° NW 23:49:18 10° NNE visible
07 Jul 5.5 04:46:03 10° NNW 05:19:26 58° NE 05:25:53 10° ESE visible
07 Jul 8.5 21:03:54 10° W 22:01:37 31° NW 00:40:24 10° NE visible
08 Jul 4.4 05:36:29 10° NW 06:02:24 85° SW 06:07:40 10° SE visible
08 Jul 8.1 21:59:28 10° W 23:15:43 22° NW 01:30:26 10° NE visible
09 Jul 4.5 06:26:15 10° NW 06:43:53 42° WSW 06:48:39 10° S visible
09 Jul 7.7 23:22:21 10° WNW 01:57:58 24° NNE 02:18:16 10° ENE visible
10 Jul 5.2 07:16:49 10° WNW 07:24:19 17° WSW 07:28:08 10° SW visible
10 Jul 8.0 17:50:31 10° SW 18:19:50 77° WNW 21:04:02 10° NNE visible
